TimeCDT,TemperatureF,Dew PointF,Humidity,Sea Level PressureIn,VisibilityMPH,Wind Direction,Wind SpeedMPH,Gust SpeedMPH,PrecipitationIn,Events,Conditions,WindDirDegrees,DateUTC
12:53 AM,57.0,53.1,87,30.04,9.0,NNE,9.2,-,N/A,,Scattered Clouds,30,2012-10-10 05:53:00
1:53 AM,57.9,55.0,90,30.07,8.0,NE,5.8,-,N/A,,Scattered Clouds,40,2012-10-10 06:53:00
2:53 AM,59.0,55.0,87,30.08,8.0,NE,3.5,-,N/A,,Mostly Cloudy,40,2012-10-10 07:53:00
3:53 AM,60.1,55.9,86,30.10,9.0,NNE,5.8,-,N/A,,Overcast,20,2012-10-10 08:53:00
4:01 AM,59.0,55.4,88,30.11,8.0,NNE,8.1,-,N/A,,Overcast,30,2012-10-10 09:01:00
4:53 AM,59.0,55.0,87,30.12,7.0,NNE,11.5,-,N/A,,Overcast,20,2012-10-10 09:53:00
5:53 AM,57.9,53.1,84,30.15,9.0,NNE,12.7,20.7,N/A,,Overcast,30,2012-10-10 10:53:00
6:53 AM,57.0,50.0,77,30.18,10.0,NE,8.1,-,N/A,,Overcast,40,2012-10-10 11:53:00
7:53 AM,57.0,48.9,74,30.20,10.0,NE,9.2,-,N/A,,Overcast,40,2012-10-10 12:53:00
8:53 AM,55.9,48.0,75,30.23,10.0,Variable,6.9,-,N/A,,Overcast,0,2012-10-10 13:53:00
9:53 AM,57.9,48.0,70,30.24,10.0,NE,5.8,16.1,N/A,,Overcast,50,2012-10-10 14:53:00
10:53 AM,63.0,48.0,58,30.23,10.0,NE,8.1,16.1,N/A,,Mostly Cloudy,50,2012-10-10 15:53:00
11:53 AM,66.0,48.9,54,30.22,10.0,NE,11.5,19.6,N/A,,Partly Cloudy,40,2012-10-10 16:53:00
12:53 PM,69.1,46.9,45,30.21,10.0,NNE,11.5,18.4,N/A,,Scattered Clouds,20,2012-10-10 17:53:00
1:53 PM,69.1,44.1,40,30.18,10.0,East,8.1,-,N/A,,Mostly Cloudy,80,2012-10-10 18:53:00
2:53 PM,70.0,42.1,36,30.15,10.0,NNE,9.2,-,N/A,,Overcast,30,2012-10-10 19:53:00
3:53 PM,70.0,43.0,38,30.14,10.0,NNE,6.9,-,N/A,,Overcast,30,2012-10-10 20:53:00
4:53 PM,69.1,45.0,42,30.13,10.0,NE,6.9,-,N/A,,Overcast,50,2012-10-10 21:53:00
5:53 PM,68.0,46.9,47,30.12,10.0,Calm,Calm,-,N/A,,Overcast,0,2012-10-10 22:53:00
6:53 PM,66.0,48.0,52,30.12,10.0,Calm,Calm,-,0.00,,Overcast,0,2012-10-10 23:53:00
7:53 PM,64.9,48.9,56,30.12,10.0,Calm,Calm,-,N/A,,Overcast,0,2012-10-11 00:53:00
8:53 PM,64.9,48.9,56,30.13,10.0,Calm,Calm,-,N/A,,Overcast,0,2012-10-11 01:53:00
9:53 PM,64.9,48.0,54,30.14,10.0,Calm,Calm,-,N/A,,Overcast,0,2012-10-11 02:53:00
10:53 PM,64.0,51.1,63,30.13,10.0,SE,3.5,-,N/A,,Overcast,130,2012-10-11 03:53:00
11:53 PM,64.9,52.0,63,30.12,10.0,SSE,5.8,-,N/A,,Overcast,160,2012-10-11 04:53:00